Stündliche Wetter Frankfurt am Main

Heute, 1 August, Sonntag

Zeit Temperatur Niederschläge Wind Luftdruck Luftfeuchtigkeit
00:00 +18°C° 0 mm 1 m/S 748 mmHg 77%
01:00 +15°C° 0 mm 0 m/S 748 mmHg 79%
02:00 +15°C° 0 mm 0 m/S 747 mmHg 81%
03:00 +15°C° 0 mm 0 m/S 747 mmHg 82%
04:00 +15°C° 0 mm 0 m/S 747 mmHg 84%
05:00 +15°C° 0 mm 0 m/S 747 mmHg 83%
06:00 +16°C° 0 mm 0 m/S 747 mmHg 81%
07:00 +18°C° 0 mm 1 m/S 747 mmHg 79%
08:00 +19°C° 0.1 mm 1 m/S 747 mmHg 74%
09:00 +20°C° 0.1 mm 1 m/S 748 mmHg 68%
10:00 +21°C° 0.1 mm 2 m/S 748 mmHg 62%
11:00 +23°C° 0.1 mm 2 m/S 747 mmHg 56%
12:00 +22°C° 0.1 mm 3 m/S 747 mmHg 50%
13:00 +24°C° 0.1 mm 3 m/S 747 mmHg 45%
14:00 +25°C° 0 mm 3 m/S 747 mmHg 43%
15:00 +25°C° 0 mm 4 m/S 747 mmHg 42%
16:00 +25°C° 0 mm 4 m/S 747 mmHg 41%
17:00 +23°C° 0 mm 4 m/S 747 mmHg 47%
18:00 +22°C° 0 mm 3 m/S 747 mmHg 53%
19:00 +21°C° 0 mm 3 m/S 747 mmHg 59%
20:00 +19°C° 0 mm 3 m/S 748 mmHg 66%
21:00 +18°C° 0 mm 2 m/S 748 mmHg 72%
22:00 +17°C° 0 mm 2 m/S 749 mmHg 79%
23:00 +16°C° 0 mm 2 m/S 749 mmHg 82%

Morgen, 2 August, Montag

Zeit Temperatur Niederschläge Wind Luftdruck Luftfeuchtigkeit
00:00 +16°C° 0 mm 1 m/S 749 mmHg 84%
01:00 +15°C° 0 mm 1 m/S 749 mmHg 86%
02:00 +15°C° 0 mm 1 m/S 749 mmHg 88%
03:00 +15°C° 0 mm 1 m/S 749 mmHg 89%
04:00 +14°C° 0 mm 1 m/S 750 mmHg 91%
05:00 +15°C° 0 mm 1 m/S 750 mmHg 89%
06:00 +15°C° 0 mm 1 m/S 751 mmHg 87%
07:00 +16°C° 0 mm 1 m/S 751 mmHg 85%
08:00 +18°C° 0.2 mm 1 m/S 751 mmHg 81%
09:00 +19°C° 0.2 mm 1 m/S 751 mmHg 78%
10:00 +18°C° 0.2 mm 2 m/S 751 mmHg 74%
11:00 +19°C° 0.3 mm 2 m/S 751 mmHg 68%
12:00 +21°C° 0.3 mm 2 m/S 751 mmHg 63%
13:00 +23°C° 0.3 mm 2 m/S 751 mmHg 58%
14:00 +23°C° 0.3 mm 2 m/S 751 mmHg 58%
15:00 +23°C° 0.3 mm 2 m/S 751 mmHg 58%
16:00 +22°C° 0.3 mm 3 m/S 750 mmHg 57%
17:00 +23°C° 0.3 mm 2 m/S 750 mmHg 62%
18:00 +21°C° 0.3 mm 2 m/S 750 mmHg 66%
19:00 +21°C° 0.3 mm 1 m/S 750 mmHg 71%
20:00 +20°C° 0.2 mm 1 m/S 751 mmHg 76%
21:00 +19°C° 0.2 mm 1 m/S 751 mmHg 81%
22:00 +15°C° 0.2 mm 0 m/S 751 mmHg 86%
23:00 +16°C° 0.3 mm 1 m/S 751 mmHg 89%

übermorgen, 3 August, Dienstag

Zeit Temperatur Niederschläge Wind Luftdruck Luftfeuchtigkeit
00:00 +15°C° 0.3 mm 1 m/S 751 mmHg 91%
01:00 +15°C° 0.3 mm 1 m/S 751 mmHg 94%
02:00 +15°C° 0.1 mm 1 m/S 751 mmHg 95%
03:00 +15°C° 0.1 mm 1 m/S 751 mmHg 96%
04:00 +14°C° 0.1 mm 1 m/S 750 mmHg 96%
05:00 +15°C° 0.1 mm 2 m/S 750 mmHg 95%
06:00 +15°C° 0.1 mm 2 m/S 750 mmHg 94%
07:00 +16°C° 0.1 mm 2 m/S 750 mmHg 93%
08:00 +17°C° 0.5 mm 2 m/S 750 mmHg 88%
09:00 +18°C° 0.5 mm 3 m/S 750 mmHg 84%
10:00 +19°C° 0.5 mm 3 m/S 750 mmHg 79%
11:00 +18°C° 0.6 mm 3 m/S 750 mmHg 81%
12:00 +18°C° 0.6 mm 3 m/S 750 mmHg 83%
13:00 +17°C° 0.6 mm 3 m/S 750 mmHg 85%
14:00 +18°C° 0.3 mm 3 m/S 750 mmHg 78%
15:00 +20°C° 0.3 mm 4 m/S 750 mmHg 71%
16:00 +21°C° 0.3 mm 4 m/S 750 mmHg 64%
17:00 +20°C° 0.1 mm 3 m/S 750 mmHg 67%
18:00 +20°C° 0.1 mm 2 m/S 750 mmHg 70%
19:00 +20°C° 0.1 mm 1 m/S 750 mmHg 72%
20:00 +19°C° 0 mm 1 m/S 750 mmHg 76%
21:00 +18°C° 0 mm 1 m/S 750 mmHg 80%
22:00 +16°C° 0 mm 1 m/S 750 mmHg 84%
23:00 +15°C° 0 mm 1 m/S 750 mmHg 84%

4 August, Mittwoch

Zeit Temperatur Niederschläge Wind Luftdruck Luftfeuchtigkeit
00:00 +14°C° 0 mm 0 m/S 750 mmHg 85%
01:00 +14°C° 0 mm 0 m/S 750 mmHg 86%
02:00 +14°C° 0 mm 0 m/S 750 mmHg 86%
03:00 +14°C° 0 mm 0 m/S 750 mmHg 87%
04:00 +14°C° 0 mm 0 m/S 750 mmHg 87%
05:00 +14°C° 0.4 mm 0 m/S 750 mmHg 90%
06:00 +14°C° 0.4 mm 0 m/S 750 mmHg 92%
07:00 +14°C° 0.4 mm 0 m/S 750 mmHg 94%
08:00 +14°C° 0.6 mm 0 m/S 750 mmHg 95%
09:00 +14°C° 0.6 mm 0 m/S 750 mmHg 95%
10:00 +14°C° 0.6 mm 0 m/S 750 mmHg 95%
11:00 +14°C° 0.3 mm 0 m/S 750 mmHg 94%
12:00 +15°C° 0.3 mm 0 m/S 751 mmHg 93%
13:00 +15°C° 0.3 mm 0 m/S 751 mmHg 92%
14:00 +16°C° 0.1 mm 1 m/S 751 mmHg 92%
15:00 +16°C° 0.1 mm 1 m/S 751 mmHg 91%
16:00 +16°C° 0.1 mm 1 m/S 751 mmHg 91%
17:00 +16°C° 0.1 mm 1 m/S 751 mmHg 92%
18:00 +15°C° 0.1 mm 0 m/S 751 mmHg 93%
19:00 +14°C° 0.1 mm 0 m/S 751 mmHg 94%
20:00 +15°C° 0 mm 1 m/S 751 mmHg 94%
21:00 +15°C° 0 mm 1 m/S 751 mmHg 95%
22:00 +15°C° 0 mm 1 m/S 752 mmHg 95%
23:00 +14°C° 0 mm 1 m/S 751 mmHg 95%

5 August, Donnerstag

Zeit Temperatur Niederschläge Wind Luftdruck Luftfeuchtigkeit
00:00 +14°C° 0 mm 1 m/S 751 mmHg 95%
01:00 +14°C° 0 mm 1 m/S 751 mmHg 96%
02:00 +13°C° 0 mm 1 m/S 751 mmHg 96%
03:00 +13°C° 0 mm 1 m/S 751 mmHg 96%
04:00 +12°C° 0 mm 0 m/S 750 mmHg 96%
05:00 +12°C° 0 mm 0 m/S 750 mmHg 94%
06:00 +13°C° 0 mm 0 m/S 751 mmHg 93%
07:00 +14°C° 0 mm 0 m/S 751 mmHg 91%
08:00 +16°C° 0 mm 1 m/S 750 mmHg 83%
09:00 +18°C° 0 mm 1 m/S 750 mmHg 76%
10:00 +19°C° 0 mm 2 m/S 750 mmHg 69%
11:00 +20°C° 0 mm 2 m/S 750 mmHg 64%
12:00 +21°C° 0 mm 2 m/S 749 mmHg 59%
13:00 +23°C° 0 mm 2 m/S 749 mmHg 55%
14:00 +22°C° 0.1 mm 3 m/S 749 mmHg 56%
15:00 +22°C° 0.1 mm 3 m/S 748 mmHg 57%
16:00 +22°C° 0.1 mm 3 m/S 748 mmHg 59%
17:00 +21°C° 0.1 mm 3 m/S 748 mmHg 63%
18:00 +21°C° 0.1 mm 3 m/S 748 mmHg 67%
19:00 +20°C° 0.1 mm 3 m/S 748 mmHg 72%
20:00 +19°C° 0.1 mm 2 m/S 748 mmHg 78%
21:00 +18°C° 0.1 mm 2 m/S 748 mmHg 84%
22:00 +16°C° 0.1 mm 2 m/S 748 mmHg 90%
23:00 +16°C° 0 mm 2 m/S 748 mmHg 91%

6 August, Freitag

Zeit Temperatur Niederschläge Wind Luftdruck Luftfeuchtigkeit
00:00 +16°C° 0 mm 2 m/S 748 mmHg 92%
01:00 +16°C° 0 mm 2 m/S 748 mmHg 92%
02:00 +16°C° 0.1 mm 2 m/S 748 mmHg 93%
03:00 +15°C° 0.1 mm 2 m/S 748 mmHg 94%
04:00 +15°C° 0.1 mm 2 m/S 748 mmHg 94%
05:00 +16°C° 0.1 mm 2 m/S 748 mmHg 93%
06:00 +16°C° 0.1 mm 2 m/S 748 mmHg 93%
07:00 +16°C° 0.1 mm 3 m/S 748 mmHg 92%
08:00 +17°C° 0.1 mm 3 m/S 748 mmHg 86%
09:00 +18°C° 0.1 mm 3 m/S 748 mmHg 80%
10:00 +19°C° 0.1 mm 4 m/S 748 mmHg 75%
11:00 +20°C° 0.1 mm 4 m/S 748 mmHg 68%
12:00 +21°C° 0.1 mm 4 m/S 748 mmHg 61%
13:00 +22°C° 0.1 mm 4 m/S 748 mmHg 54%
14:00 +23°C° 0 mm 4 m/S 747 mmHg 51%
15:00 +23°C° 0 mm 4 m/S 747 mmHg 49%
16:00 +25°C° 0 mm 4 m/S 747 mmHg 46%
17:00 +23°C° 0 mm 4 m/S 747 mmHg 50%
18:00 +22°C° 0 mm 3 m/S 747 mmHg 55%
19:00 +21°C° 0 mm 3 m/S 747 mmHg 59%
20:00 +19°C° 0 mm 2 m/S 747 mmHg 65%
21:00 +19°C° 0 mm 1 m/S 747 mmHg 70%
22:00 +16°C° 0 mm 1 m/S 747 mmHg 76%
23:00 +16°C° 0 mm 1 m/S 747 mmHg 77%
Mehr zeigen

Wir brauchen deine Erlaubnis

Meteoprog und unser Service Anbieter werden persönliche Daten aufbewahren, so wie Cookies, Geräte Bezeichnung oder ähnliche Technologien von deinem Gerät und Prozess, so wie Persönliche Daten Inhalte und Werbungen, genauso wie social Media und den Verkehr zu analysieren.

  • Aufbewahrung und/oder Zugang zu deiner Geräte Informationen.

    Cookies, Geräte Bezeichnung oder andere Informationen, können aufbewahrt oder Zugang zu deinem Gerät erhalten, für den Grund, der oben angegeben wird.

  • Personalisierte Werbung und Inhalte, Messungen, Einblick in das Publikum und Produkt Entwicklung.

    Werbungen und Inhalte können personalisiert werden, basierend auf ein Profil. Mehr Daten können besser personalisierte Werbungen und Inhalte hinzufügen. Werbung und Inhalte können gezeigt und gemessen werden. Einblicke über das Publikum, welche die Werbung gesehen haben und den Inhalt, können abgeleitet werden. So wie Daten können genutzt werden, um es zu verbessern oder die Benutzer Erfahrung zu verbessern das System und die Software.

Wenn du “Ich stimme zu” klickst, erlaubst du uns, die Cookies zu benutzen die Geräte Bezeichnung, den Web oder ähnliche Technologien zu benutzen. Deine Settings, können in deinem Gerät bei deinem Browser geändert werden.

Für den bestimmten Zweck, berechtigten Interessen beruhen darauf, mehr als auf den Inhalt. Du kannst mehr darüber in unseren Privaten und Cookie Politik lesen.